Location: Rounton
(54.4000°N, 1.3500°W)
Time: 12:38:33
(UTC+00:00)

Transit 2A Rocket - Pass Details

Date: 09 December 2021
Orbit: 584 x 918 km, 66.7° (Epoch: 17 January)

Event Time Altitude Azimuth Distance (km) Brightness Sun altitude
Rises 11:23:38 0° 299° (WNW) 3,540 8.1 12.4°
Reaches altitude 10° 11:26:35 10° 312° (NW) 2,615 7.4 12.4°
Maximum altitude 11:31:43 27° 9° (N) 1,701 6.4 12.5°
Drops below altitude 10° 11:36:48 10° 65° (ENE) 2,591 7.6 12.6°
Sets 11:39:42 0° 78° (ENE) 3,500 8.3 12.6°
